Regional Weather Roundup
Issued by NWS Lake Charles, LA

Home | Current Version | Previous Version | Text Only | Print | Product List | Glossary On
Versions: 1 2 3 4 5 6 7 8 9 10 11 12 13 14 15 16 17 18 19 20 21 22 23 24 25 26 27
000
ASUS44 KLCH 240010
RWRLCH
REGIONAL WEATHER ROUNDUP
NATIONAL WEATHER SERVICE LAKE CHARLES LA
600 PM CST FRI FEB 23 2018

Note: "fair" indicates few or no clouds below 12,000 feet with no
significant weather and/or obstructions to visibility.


ACROSS SOUTHEAST TEXAS

CITY           SKY/WX    TMP DP  RH WIND       PRES   REMARKS
BEAUMONT       MOCLDY    73  69  87 S13       30.09S
BEAUMONT CITY  FAIR      74  69  83 S6        30.10S
ORANGE         MOCLDY    74  71  88 S10       30.12S
JASPER         FAIR      78  65  64 S9        30.10S
$$

ACROSS CENTRAL LOUISIANA

CITY           SKY/WX    TMP DP  RH WIND       PRES   REMARKS
LEESVILLE      FAIR      77  61  58 S8        30.09R
FULLERTON      FAIR     N/A N/A N/A CALM      30.07S
ALEXANDRIA INT FAIR      73  68  84 SE8       30.09S
ESLER FIELD    FAIR      73  67  81 SE5       30.11F
DERIDDER       FAIR      77  63  61 S9        30.12R
OAKDALE        FAIR      75  65  72 CALM      30.11S
OPELOUSAS      FAIR      73  67  80 S5        30.13R
$$

ACROSS SOUTHWEST AND SOUTH CENTRAL LOUISIANA

CITY           SKY/WX    TMP DP  RH WIND       PRES   REMARKS
SULPHUR        FAIR      74  70  85 S8        30.12S
LAKE CHARLES   MOCLDY    75  69  81 S9        30.11S
CHENNAULT INT  PTCLDY    75  68  78 S7        30.12R
CAMERON PHI    CLOUDY    72  72 100 SE12      30.12S FOG
DEQUINCY       NOT AVBL
JENNINGS       FAIR      75  68  80 S8        30.12S
LAFAYETTE      FAIR      76  68  76 S12       30.13S
NEW IBERIA     FAIR      75  68  78 S10       30.14S
ABBEVILLE      FAIR      73  73  97 S10       30.14S
PATTERSON      FAIR      74  70  87 S7        30.16R
SALT POINT       N/A     72  70  93 SE5       30.14R
$$

SELECTED SITES ACROSS THE REGION

CITY           SKY/WX    TMP DP  RH WIND       PRES   REMARKS
HOUSTON BUSH   PTCLDY    76  65  68 S14       30.05S
HOUSTON HOBBY  FAIR      74  70  87 S14       30.05F
GALVESTON      FOG       72  70  93 SE12      30.08S VSB 1
COLLEGE STAT   PTCLDY    74  65  73 S7        30.01F
CONROE         MOCLDY    75  67  76 SE12G20   30.04F
HUNTSVILLE     CLEAR     76  63  64 SE7       30.03S
LUFKIN         CLEAR     76  61  59 S10       30.04F
SHREVEPORT     MOCLDY    74  67  78 E6        30.06S
MONROE         FAIR      72  64  76 SE3       30.12S
NATCHEZ MS     CLOUDY    70  67  90 SE8       30.15S
BATON ROUGE    CLOUDY    74  70  87 E5        30.14S
N.O. INTL ARPT MOCLDY    74  71  91 SE14      30.16S
SLIDELL        MOCLDY    73  67  81 S7        30.17S
$$

MARINE REPORTS

STATION/POSITION TIME  SKY/WX   TEMP    WIND        PRES    VSBY
                                AIR SEA DIR/SP/G
                 (UTC)          (F)     (DEG/KT/KT) (MB)    (MI)
BUOY 30 S HIGH I 2250            65 63  100/  6/  8 1018.8
WVE H/P(F/S)=  2/ 8

SEA RIM ST PARK  0000            69     130/  7/ 10 1019.5S
PORT ARTHUR      2348            72 69  160/  6/ 10 1019.5R
SABINE PASS N    2348            70 73  130/ 10/ 11 1021.0R
TEXAS POINT      NOT AVBL
CALCASIEU PASS   2348            71 71  150/  8/ 11 1018.7S
LK CHARLES BEACH 2348            76 69              1019.2R
MARSH ISLAND     2300            76                   N/A
FRESH WATER LOCK 2348            73 76  130/  5/  9 1020.5S
AMERADA PASS     2348            74 57  160/  3/  6 1021.0R
$$




USA.gov is the U.S. government's official web portal to all federal, state and local government web resources and services.